Weather Roundup
Issued by NWS Springfield, MO

Home | Current Version | Previous Version | Text Only | Print | Product List | Glossary Off
Versions: 1 2 3 4 5 6 7 8 9 10 11 12 13 14 15 16 17 18 19 20 21 22 23 24 25 26 27 28 29 30 31 32 33 34 35 36 37 38 39 40 41 42 43 44 45 46 47 48 49 50

000
NZUS99 KSGF 160459
HRRSGF

HOURLY WEATHER
NATIONAL WEATHER SERVICE SPRINGFIELD MO
1200 AM CDT WED APR 16 2014

......SGF CWA......

CITY           SKY/WX    TMP DP  RH WIND       PRES   REMARKS
SPRINGFIELD    MOCLDY    42  25  50 SE12      30.12F
JOPLIN         CLEAR     45  26  47 SE10      30.09F
WEST PLAINS    PTCLDY    40  21  46 SE5       30.18F
ROLLA          MOCLDY    38  22  52 SE9       30.14F WCI  31
OSAGE BEACH    PTCLDY    39  23  52 SE6       30.16S WCI  35

......SURROUNDING SGF CWA......

CITY           SKY/WX    TMP DP  RH WIND       PRES   REMARKS
CHANUTE        PTCLDY    47  28  47 SE13      30.04F
PARSONS        CLEAR     48  28  46 SE8       30.06F
COFFEYVILLE    CLEAR     46  28  49 S9        30.06F
EMPORIA        MOCLDY    48  28  46 S21G28    29.96F
HARRISON AR    CLEAR     41  26  55 SE6       30.16F
NEAR YELLVILLE CLEAR     41  25  52 CALM      30.18F

......KANSAS AND MISSOURI......

CITY           SKY/WX    TMP DP  RH WIND       PRES   REMARKS
KANSAS CTY INT PTCLDY    47  26  44 S20       30.00F
DOWNTOWN KC    CLEAR     49  26  41 S10G18    30.02F
COLUMBIA       CLEAR     39  25  57 SE7       30.14S WCI  34
SEDALIA        PTCLDY    43  22  43 SE12      30.11F
ST JOSEPH      PTCLDY    46  29  51 S17       29.97F
ST LOUIS       PTCLDY    43  20  39 SE10      30.21F
SPIRIT OF STL  CLEAR     38  22  52 SE5       30.20S WCI  34
KIRKSVILLE     CLOUDY    38  26  62 S13       30.09F WCI  30
WICHITA        PTCLDY    51  19  28 S17       29.93F
TOPEKA         PTCLDY    49  29  46 S16       29.97F
OLATHE         PTCLDY    45  27  49 S17G24    30.02F

......TENNESSEE......

CITY           SKY/WX    TMP DP  RH WIND       PRES   REMARKS
MEMPHIS        CLEAR     42  25  50 SE5       30.26R
NASHVILLE      CLEAR     36  23  59 N3        30.26R

......ARKANSAS.......

CITY           SKY/WX    TMP DP  RH WIND       PRES   REMARKS
FAYETTEVILLE   CLEAR     36  32  85 S3        30.13F
FT SMITH       CLEAR     48  30  49 S3        30.14F
LITTLE ROCK    PTCLDY    45  34  65 SE10      30.23S

......OKLAHOMA.......

CITY           SKY/WX    TMP DP  RH WIND       PRES   REMARKS
TULSA          MOCLDY    52  26  36 S14       30.06F
PONCA CITY     CLEAR     53  21  28 S14G24    29.99F
MCALESTER      CLEAR     49  27  42 S7        30.12F
OKLAHOMA CITY  MOCLDY    50  23  34 S14       30.02F

......IOWA............

CITY           SKY/WX    TMP DP  RH WIND       PRES   REMARKS
DES MOINES     PTCLDY    40  24  53 SE13      29.99F WCI  32
QUAD CITIES    CLEAR     27  18  69 E7        30.16S WCI  19

......ILLINOIS........

CITY           SKY/WX    TMP DP  RH WIND       PRES   REMARKS
QUINCY         PTCLDY    34  24  67 SE8       30.14F WCI  27
CHICAGO        CLEAR     30  19  63 S5        30.20R WCI  25




USA.gov is the U.S. government's official web portal to all federal, state and local government web resources and services.